Regional Weather Roundup
Issued by NWS Wakefield, VA

Home | Current Version | Previous Version | Graphics & Text | Print | Product List | Glossary On
Versions: 1 2 3 4 5 6 7 8 9 10 11 12 13 14 15 16 17 18 19 20 21 22 23 24 25 26 27 28
000
ASUS41 KAKQ 210810
RWRAKQ

REGIONAL WEATHER ROUNDUP
NATIONAL WEATHER SERVICE WAKEFIELD VA
400 AM EDT MON APR 21 2014

Note: "fair" indicates few or no clouds below 12,000 feet with no
significant weather and/or obstructions to visibility. * = Denotes
station may not report precipitation (e.g., rain,snow,etc.),
thunder or fog.

VAZ042-051-052>054-056-210900-
NORTHERN VIRGINIA

CITY           SKY/WX    TMP DP  RH WIND       PRES   REMARKS
WASH NATIONAL  PTCLDY    45  30  55 NE5       30.24F
DULLES         PTCLDY    35  31  85 CALM      30.23F
FORT BELVOIR   CLEAR     35  33  89 CALM      30.24F
QUANTICO       CLEAR     41  34  76 NW7       30.25F
FREDERICKSBRG* CLEAR     39  34  81 NW3       30.22F
STAFFORD*      CLEAR     35  31  87 CALM      30.27S
WARRENTON      CLEAR     34  34 100 CALM      30.22F
CULPEPER*      CLEAR     37  37 100 CALM      30.24F
MANASSAS*      CLEAR     36  34  93 CALM      30.23F
LEESBURG*      CLEAR     36  36 100 CALM      30.23F
WINCHESTER     CLEAR     37  32  81 CALM      30.21S
$$

VAZ048-049-060>072-079>083-210900-
CENTRAL AND SOUTH CENTRAL VIRGINIA...AND NORTH CENTRAL NORTH CAROLINA

CITY           SKY/WX    TMP DP  RH WIND       PRES   REMARKS
RICHMOND       CLEAR     40  27  59 N7        30.20F
CHESTERFIELD*  NOT AVBL
HANOVER        CLEAR     38  27  64 CALM      30.22F
TAPPAHANNOCK*  CLEAR     41  27  58 N3        30.21S
CHARLOTTSVILLE CLEAR     42  32  67 N3        30.22F
ORANGE*        CLEAR     36  32  87 CALM      30.24F
LOUISA*        CLEAR     37  30  75 CALM      30.21S
FARMVILLE*     CLEAR     37  32  81 CALM      30.20S
SOUTH HILL*    CLEAR     41  34  75 N6        30.23S
ROANOKE RAPIDS SUNNY     45  34  65 N9        30.15F
RALEIGH        CLEAR     45  34  65 NE3       30.16S
$$

VAZ088>098-210900-
SOUTHEAST VIRGINIA

CITY           SKY/WX    TMP DP  RH WIND       PRES   REMARKS
NORFOLK        CLOUDY    48  42  80 N13       30.13F
VIRGINIA BEACH CLOUDY    48  43  82 N15       30.12F
NORFOLK NAVAL  MOCLDY    49  43  80 N17       30.15F
WEST POINT*    CLEAR     43  34  70 N5        30.21S
NEWPORT NEWS   CLEAR     48  41  76 N8        30.16F
LANGLEY AFB    CLEAR     47  45  94 N10G18    30.15F
FORT EUSTIS    CLEAR     44  39  83 N7        30.14F
WILLIAMSBURG*  CLEAR     43  37  81 N6        30.18F
FRANKLIN*      PTCLDY    45  39  81 N5        30.14F
WAKEFIELD      CLEAR     42  35  76 N3        30.16F
$$

VAZ020-022-025-037-045-210900-
WESTERN AND SOUTHWEST VIRGINIA

CITY           SKY/WX    TMP DP  RH WIND       PRES   REMARKS
STAUNTON*      CLEAR     35  32  88 CALM      30.23S
HOT SPRINGS VA   N/A     43  30  61 CALM      30.23R
LYNCHBURG      CLEAR     47  35  63 N6        30.22S
DANVILLE       CLEAR     43  34  70 NE6       30.20F
MARTINSVILLE   CLEAR     37  34  89 CALM      30.24S
ROANOKE        CLEAR     46  34  62 CALM      30.23S
BLACKSBURG     CLEAR     43  36  75 CALM      30.22S
DUBLIN*        PTCLDY    38  31  76 CALM      30.21S
MARION*        CLEAR     38  29  72 CALM      30.21S
HILLSVILLE*    PTCLDY    45  27  49 SE3       30.22S
RICHLANDS*     SUNNY     55  26  32 CALM      30.16S
WISE*          CLEAR     54  23  30 S6        30.16S
ABINGDON*      CLEAR     51  28  40 E7        30.16S
$$

MDZ021>025-VAZ099-100-210900-
SOUTHERN MARYLAND AND THE DELMARVA PENINSULA

CITY           SKY/WX    TMP DP  RH WIND       PRES   REMARKS
PATUXENT RIVER CLEAR     43  32  65 NE9       30.21F
BAY BRIDGE APT CLEAR     41  28  60 CALM      30.23F
LEONARDTOWN    CLEAR     41  32  70 CALM      30.23S
DOVER          CLEAR     37  33  88 NE5       30.19F
GEORGETOWN     CLEAR     40  35  83 NE5       30.21F
EASTON         CLEAR     39  31  72 CALM      30.26F
CAMBRIDGE      NOT AVBL
SALISBURY      CLEAR     40  35  83 NE3       30.20F
OCEAN CITY     CLEAR     45  39  79 NE9       30.20F
WALLOPS ISLAND CLEAR     41  38  89 N7        30.18F
ACCOMACK*      CLEAR     41  36  81 NE9       30.16F
$$

NCZ012>017-030>032-210900-
EASTERN NORTH CAROLINA

CITY           SKY/WX    TMP DP  RH WIND       PRES   REMARKS
ELIZABETH CITY CLOUDY    48  45  87 N13       30.10F
AHOSKIE*       PTCLDY    44  36  73 N8        30.14F
EDENTON*       CLOUDY    48  45  87 N12G17    30.10F
CURRITUCK*     CLOUDY    48  46  92 N14G28    30.11F
KILL DEVIL HLS CLOUDY    48  46  95 N12G23    30.05F FOG
MANTEO         CLOUDY    48  47  95 N21       30.06F
CAPE HATTERAS  LGT RAIN  49  49 100 N17G29    29.99F FOG
GOLDSBORO      CLEAR     49  40  71 N10       30.09F
WASHINGTON     CLOUDY    50  46  84 N10G16    30.10S
GREENVILLE     MOCLDY    46  37  71 N8        30.12F
NEW BERN       CLOUDY    52  46  80 N14       30.06F
WILMINGTON     MOCLDY    52  42  69 N12       30.05S
$$

VAZ048-210900-
ELSEWHERE

CITY           SKY/WX    TMP DP  RH WIND       PRES   REMARKS
HARRISBURG PA  PTCLDY    42  31  64 NE3       30.23F
BALTIMORE      CLEAR     37  29  72 CALM      30.22F
ANNAPOLIS      CLEAR     44  27  51 E3        30.23F
ANDREWS AFB    CLEAR     38  28  67 NE6       30.22F
WILMINGTON DE  CLEAR     37  26  64 N5        30.24F
PHILADELPHIA   CLEAR     41  23  48 NE6       30.25F
WILDWOOD NJ*   CLEAR     36  30  80 N5        30.23S
ATLANTIC CITY  CLEAR     32  28  85 CALM      30.23F
HENDERSON NC   CLEAR     41  32  69 N6        30.18S
GREENSBORO     CLEAR     45  34  65 N6        30.18S
ROCKY MOUNT    CLEAR     46  36  68 N9        30.13F
FAYETTEVILLE   CLEAR     51  38  60 N13       30.11S
CHARLOTTE      CLEAR     45  38  76 NE6       30.17F
$$

VAZ100-210900-
MARINE

STATION/POSITION TIME  TEMP    WIND        PRES    WAVE   SWELL
                       AIR SEA DIR/SP/G            HT/PER HT/PER
                 (UTC) (F)     (DEG/KT/KT) (MB)    (FT/S) (FT/S)
44066 TX TWR #4  0800   44 44   70/ 12/ 14 1022.9F   6/ 8   5/ 8
CAPE MAY NJ      0800   39 53   60/  2/  5 1023.0S
LEWES DE         0800   44 50   50/  8/ 10 1022.5F
15NM E FENWICK I 0800   45 46              1022.3F   8/ 9
OCEAN-CITY-INLET 0800   45 47   30/  5/  9 1022.2F
WACHAPREAGUE VA  0800   44 53   20/ 10/ 14 1020.8F
THOMAS POINT MD  0800   45 53   30/  8/  9 1024.1F
GOOSES REEF MD   0800   46      50/ 12/ 12 1023.7F
COVE POINT MD    0800   45      50/  9/ 11 1023.1S
SOLOMONS ISLAND  0800      52                N/A
BISHOPS HEAD MD  0800   43 53   30/ 10/ 14 1022.3F
PINEY POINT MD   0800           20/  5/  5   N/A
POTOMAC MD       0800   46      60/ 10/ 14 1022.1S
CAMBRIDGE MD     0800   43 56   40/  7/  9 1022.8S
LEWISETTA VA     0800   46 55   50/  7/  9 1022.6R
RAPPAHANNOCK LGT 0800           20/ 20/ 21 1021.4F
STINGRAY PT      0800   47      50/ 14/ 16 1022.0S
YORK RVR RNG VA  0800   47      30/ 18/ 20 1020.1F
YORKTOWN VA      0800   46 54  320/  9/ 10 1021.2F
JAMESTOWN VA     0800   43      20/  4/  8   N/A
DOMINION TERM VA 0800   48      30/  9/ 15 1020.8F
KIPTOPEKE VA     0800      52   40/  9/ 14   N/A
CHES BAY BRIDGE  0800   47 50   10/ 13/ 15 1020.4F
CAPE HENRY VA    0800   47      10/ 16/ 20   N/A
CHESAPEAKE LGHT  0700   46      20/ 28/ 31 1019.9F
WILLOUBY STN VA  0800   47      10/ 14/ 17 1019.7F
S CRANEY ISL VA  0800          350/ 13/ 16 1020.5F
CAPE HENRY BUOY  0800      46                N/A     8/11   3/11
1ST LANDING BUOY 0800      46                N/A     7/11   7/11
64NM E OF VA BCH 0800   51 48   10/ 19/ 23 1017.1F  12/11   8/11
DUCK PIER NC     0800   48 49   10/ 20/ 25 1017.1F
44100 DUCK FRF   0800      48                N/A    10/12   5/12
44056 DUCK FRF   0800      49                N/A    10/11   5/11
OREGON INLET NC  0800   48 50  350/ 18/ 26 1016.6F
HATTERAS NC      0800   52 54   10/ 19/ 28 1015.5R
DIAMOND SHLS NC  0800   58 75  360/ 33/ 39 1012.5R  14/11  10/11
CAPE LOOKOUT NC  0700   52     350/ 27/ 31 1015.7F
FRYING PAN SHLS  0800   58 67   20/ 27/ 31 1014.4R  10/ 8   5/ 9
$$



USA.gov is the U.S. government's official web portal to all federal, state and local government web resources and services.